Year,Month,Day,Hour,Minute,Value (Times are PST for temperature in C)
2017,08,10,00,00,19.30
2017,08,10,00,01,19.30
2017,08,10,00,02,19.30
2017,08,10,00,03,19.20
2017,08,10,00,04,19.20
2017,08,10,00,05,19.30
2017,08,10,00,06,19.30
2017,08,10,00,07,19.30
2017,08,10,00,08,19.30
2017,08,10,00,09,19.30
2017,08,10,00,10,19.30
2017,08,10,00,11,19.30
2017,08,10,00,12,19.30
2017,08,10,00,13,19.30
2017,08,10,00,14,19.30
2017,08,10,00,15,19.30
2017,08,10,00,16,19.30
2017,08,10,00,17,19.30
2017,08,10,00,18,19.20
2017,08,10,00,19,19.30
2017,08,10,00,20,19.30
2017,08,10,00,21,19.30
2017,08,10,00,22,19.30
2017,08,10,00,23,19.40
2017,08,10,00,24,19.40
2017,08,10,00,25,19.40
2017,08,10,00,26,19.40
2017,08,10,00,27,19.40
2017,08,10,00,28,19.50
2017,08,10,00,29,19.50
2017,08,10,00,30,19.50
2017,08,10,00,31,19.50
2017,08,10,00,32,19.50
2017,08,10,00,33,19.40
2017,08,10,00,34,19.40
2017,08,10,00,35,19.40
2017,08,10,00,36,19.40
2017,08,10,00,37,19.40
2017,08,10,00,38,19.40
2017,08,10,00,39,19.40
2017,08,10,00,40,19.40
2017,08,10,00,41,19.30
2017,08,10,00,42,19.30
2017,08,10,00,43,19.30
2017,08,10,00,44,19.30
2017,08,10,00,45,19.30
2017,08,10,00,46,19.30
2017,08,10,00,47,19.30
2017,08,10,00,48,19.30
2017,08,10,00,49,19.30
2017,08,10,00,50,19.30
2017,08,10,00,51,19.30
2017,08,10,00,52,19.20
2017,08,10,00,53,19.20
2017,08,10,00,54,19.20
2017,08,10,00,55,19.20
2017,08,10,00,56,19.20
2017,08,10,00,57,19.10
2017,08,10,00,58,19.10
2017,08,10,00,59,19.10
2017,08,10,01,00,19.10
2017,08,10,01,01,19.10
2017,08,10,01,02,19.10
2017,08,10,01,03,19.00
2017,08,10,01,04,19.00
2017,08,10,01,05,19.00
2017,08,10,01,06,18.90
2017,08,10,01,07,18.90
2017,08,10,01,08,18.90
2017,08,10,01,09,18.90
2017,08,10,01,10,18.90
2017,08,10,01,11,18.80
2017,08,10,01,12,18.80
2017,08,10,01,13,18.80
2017,08,10,01,14,18.80
2017,08,10,01,15,18.70
2017,08,10,01,16,18.70
2017,08,10,01,17,18.70
2017,08,10,01,18,18.70
2017,08,10,01,19,18.70
2017,08,10,01,20,18.70
2017,08,10,01,21,18.70
2017,08,10,01,22,18.70
2017,08,10,01,23,18.80
2017,08,10,01,24,18.80
2017,08,10,01,25,18.90
2017,08,10,01,26,18.90
2017,08,10,01,27,19.00
2017,08,10,01,28,19.00
2017,08,10,01,29,19.10
2017,08,10,01,30,19.10
2017,08,10,01,31,19.20
2017,08,10,01,32,19.20
2017,08,10,01,33,19.30
2017,08,10,01,34,19.30
2017,08,10,01,35,19.30
2017,08,10,01,36,19.30
2017,08,10,01,37,19.30
2017,08,10,01,38,19.30
2017,08,10,01,39,19.20
2017,08,10,01,40,19.30
2017,08,10,01,41,19.30
2017,08,10,01,42,19.30
2017,08,10,01,43,19.30
2017,08,10,01,44,19.30
2017,08,10,01,45,19.30
2017,08,10,01,46,19.30
2017,08,10,01,47,19.30
2017,08,10,01,48,19.30
2017,08,10,01,49,19.30
2017,08,10,01,50,19.30
2017,08,10,01,51,19.30
2017,08,10,01,52,19.30
2017,08,10,01,53,19.30
2017,08,10,01,54,19.20
2017,08,10,01,55,19.20
2017,08,10,01,56,19.20
2017,08,10,01,57,19.20
2017,08,10,01,58,19.20
2017,08,10,01,59,19.20
2017,08,10,02,00,19.10
2017,08,10,02,01,19.10
2017,08,10,02,02,19.10
2017,08,10,02,03,19.10
2017,08,10,02,04,19.00
2017,08,10,02,05,18.90
2017,08,10,02,06,18.90
2017,08,10,02,07,18.90
2017,08,10,02,08,18.90
2017,08,10,02,09,18.80
2017,08,10,02,10,18.70
2017,08,10,02,11,18.70
2017,08,10,02,12,18.60
2017,08,10,02,13,18.50
2017,08,10,02,14,18.50
2017,08,10,02,15,18.50
2017,08,10,02,16,18.50
2017,08,10,02,17,18.40
2017,08,10,02,18,18.40
2017,08,10,02,19,18.40
2017,08,10,02,20,18.30
2017,08,10,02,21,18.30
2017,08,10,02,22,18.20
2017,08,10,02,23,18.20
2017,08,10,02,24,18.20
2017,08,10,02,25,18.10
2017,08,10,02,26,18.10
2017,08,10,02,27,18.10
2017,08,10,02,28,18.00
2017,08,10,02,29,18.00
2017,08,10,02,30,17.90
2017,08,10,02,31,17.90
2017,08,10,02,32,17.80
2017,08,10,02,33,17.70
2017,08,10,02,34,17.60
2017,08,10,02,35,17.50
2017,08,10,02,36,17.40
2017,08,10,02,37,17.30
2017,08,10,02,38,17.20
2017,08,10,02,39,17.10
2017,08,10,02,40,17.00
2017,08,10,02,41,16.90
2017,08,10,02,42,16.90
2017,08,10,02,43,16.80
2017,08,10,02,44,16.80
2017,08,10,02,45,16.70
2017,08,10,02,46,16.70
2017,08,10,02,47,16.70
2017,08,10,02,48,16.60
2017,08,10,02,49,16.60
2017,08,10,02,50,16.50
2017,08,10,02,51,16.50
2017,08,10,02,52,16.40
2017,08,10,02,53,16.40
2017,08,10,02,54,16.40
2017,08,10,02,55,16.40
2017,08,10,02,56,16.30
2017,08,10,02,57,16.30
2017,08,10,02,58,16.30
2017,08,10,02,59,16.30
2017,08,10,03,00,16.30
2017,08,10,03,01,16.30
2017,08,10,03,02,16.20
2017,08,10,03,03,16.20
2017,08,10,03,04,16.20
2017,08,10,03,05,16.20
2017,08,10,03,06,16.20
2017,08,10,03,07,16.10
2017,08,10,03,08,16.10
2017,08,10,03,09,16.10
2017,08,10,03,10,16.10
2017,08,10,03,11,16.00
2017,08,10,03,12,16.00
2017,08,10,03,13,16.00
2017,08,10,03,14,15.90
2017,08,10,03,15,15.90
2017,08,10,03,16,15.90
2017,08,10,03,17,15.90
2017,08,10,03,18,15.90
2017,08,10,03,19,15.90
2017,08,10,03,20,15.90
2017,08,10,03,21,15.90
2017,08,10,03,22,15.90
2017,08,10,03,23,15.90
2017,08,10,03,24,15.90
2017,08,10,03,25,15.90
2017,08,10,03,26,15.90
2017,08,10,03,27,15.90
2017,08,10,03,28,15.90
2017,08,10,03,29,15.90
2017,08,10,03,30,15.90
2017,08,10,03,31,15.90
2017,08,10,03,32,15.90
2017,08,10,03,33,15.90
2017,08,10,03,34,15.90
2017,08,10,03,35,15.90
2017,08,10,03,36,15.90
2017,08,10,03,37,16.00
2017,08,10,03,38,16.00
2017,08,10,03,39,16.00
2017,08,10,03,40,16.10
2017,08,10,03,41,16.10
2017,08,10,03,42,16.10
2017,08,10,03,43,16.00
2017,08,10,03,44,16.00
2017,08,10,03,45,16.00
2017,08,10,03,46,16.00
2017,08,10,03,47,16.00
2017,08,10,03,48,15.90
2017,08,10,03,49,15.90
2017,08,10,03,50,15.80
2017,08,10,03,51,15.80
2017,08,10,03,52,15.70
2017,08,10,03,53,15.70
2017,08,10,03,54,15.70
2017,08,10,03,55,15.60
2017,08,10,03,56,15.60
2017,08,10,03,57,15.60
2017,08,10,03,58,15.60
2017,08,10,03,59,15.60
2017,08,10,04,00,15.60
2017,08,10,04,01,15.60
2017,08,10,04,02,15.60
2017,08,10,04,03,15.60
2017,08,10,04,04,15.60
2017,08,10,04,05,15.60
2017,08,10,04,06,15.60
2017,08,10,04,07,15.50
2017,08,10,04,08,15.50
2017,08,10,04,09,15.50
2017,08,10,04,10,15.50
2017,08,10,04,11,15.50
2017,08,10,04,12,15.50
2017,08,10,04,13,15.50
2017,08,10,04,14,15.40
2017,08,10,04,15,15.40
2017,08,10,04,16,15.40
2017,08,10,04,17,15.40
2017,08,10,04,18,15.40
2017,08,10,04,19,15.40
2017,08,10,04,20,15.40
2017,08,10,04,21,15.40
2017,08,10,04,22,15.40
2017,08,10,04,23,15.40
2017,08,10,04,24,15.40
2017,08,10,04,25,15.40
2017,08,10,04,26,15.50
2017,08,10,04,27,15.50
2017,08,10,04,28,15.50
2017,08,10,04,29,15.50
2017,08,10,04,30,15.50
2017,08,10,04,31,15.50
2017,08,10,04,32,15.50
2017,08,10,04,33,15.50
2017,08,10,04,34,15.50
2017,08,10,04,35,15.50
2017,08,10,04,36,15.50
2017,08,10,04,37,15.50
2017,08,10,04,38,15.50
2017,08,10,04,39,15.40
2017,08,10,04,40,15.40
2017,08,10,04,41,15.40
2017,08,10,04,42,15.30
2017,08,10,04,43,15.30
2017,08,10,04,44,15.30
2017,08,10,04,45,15.30
2017,08,10,04,46,15.30
2017,08,10,04,47,15.30
2017,08,10,04,48,15.20
2017,08,10,04,49,15.20
2017,08,10,04,50,15.20
2017,08,10,04,51,15.20
2017,08,10,04,52,15.30
2017,08,10,04,53,15.20
2017,08,10,04,54,15.20
2017,08,10,04,55,15.30
2017,08,10,04,56,15.20
2017,08,10,04,57,15.20
2017,08,10,04,58,15.20
2017,08,10,04,59,15.30
2017,08,10,05,00,15.30
2017,08,10,05,01,15.30
2017,08,10,05,02,15.30
2017,08,10,05,03,15.30
2017,08,10,05,04,15.20
2017,08,10,05,05,15.20
2017,08,10,05,06,15.20
2017,08,10,05,07,15.30
2017,08,10,05,08,15.30
2017,08,10,05,09,15.30
2017,08,10,05,10,15.30
2017,08,10,05,11,15.30
2017,08,10,05,12,15.30
2017,08,10,05,13,15.30
2017,08,10,05,14,15.30
2017,08,10,05,15,15.30
2017,08,10,05,16,15.30
2017,08,10,05,17,15.30
2017,08,10,05,18,15.30
2017,08,10,05,19,15.30
2017,08,10,05,20,15.30
2017,08,10,05,21,15.30
2017,08,10,05,22,15.30
2017,08,10,05,23,15.30
2017,08,10,05,24,15.30
2017,08,10,05,25,15.30
2017,08,10,05,26,15.30
2017,08,10,05,27,15.30
2017,08,10,05,28,15.30
2017,08,10,05,29,15.30
2017,08,10,05,30,15.30
2017,08,10,05,31,15.30
2017,08,10,05,32,15.20
2017,08,10,05,33,15.20
2017,08,10,05,34,15.20
2017,08,10,05,35,15.20
2017,08,10,05,36,15.20
2017,08,10,05,37,15.20
2017,08,10,05,38,15.20
2017,08,10,05,39,15.20
2017,08,10,05,40,15.20
2017,08,10,05,41,15.10
2017,08,10,05,42,15.10
2017,08,10,05,43,15.10
2017,08,10,05,44,15.10
2017,08,10,05,45,15.10
2017,08,10,05,46,15.10
2017,08,10,05,47,15.10
2017,08,10,05,48,15.10
2017,08,10,05,49,15.10
2017,08,10,05,50,15.10
2017,08,10,05,51,15.10
2017,08,10,05,52,15.10
2017,08,10,05,53,15.10
2017,08,10,05,54,15.10
2017,08,10,05,55,15.10
2017,08,10,05,56,15.10
2017,08,10,05,57,15.10
2017,08,10,05,58,15.10
2017,08,10,05,59,15.10
2017,08,10,06,00,15.10
2017,08,10,06,01,15.10
2017,08,10,06,02,15.10
2017,08,10,06,03,15.10
2017,08,10,06,04,15.10
2017,08,10,06,05,15.10
2017,08,10,06,06,15.10
2017,08,10,06,07,15.10
2017,08,10,06,08,15.10
2017,08,10,06,09,15.10
2017,08,10,06,10,15.10
2017,08,10,06,11,15.10
2017,08,10,06,12,15.10
2017,08,10,06,13,15.10
2017,08,10,06,14,15.10
2017,08,10,06,15,15.10
2017,08,10,06,16,15.10
2017,08,10,06,17,15.10
2017,08,10,06,18,15.10
2017,08,10,06,19,15.10
2017,08,10,06,20,15.10
2017,08,10,06,21,15.10
2017,08,10,06,22,15.10
2017,08,10,06,23,15.10
2017,08,10,06,24,15.10
2017,08,10,06,25,15.10
2017,08,10,06,26,15.10
2017,08,10,06,27,15.10
2017,08,10,06,28,15.10
2017,08,10,06,29,15.10
2017,08,10,06,30,15.10
2017,08,10,06,31,15.10
2017,08,10,06,32,15.10
2017,08,10,06,33,15.10
2017,08,10,06,34,15.20
2017,08,10,06,35,15.20
2017,08,10,06,36,15.20
2017,08,10,06,37,15.20
2017,08,10,06,38,15.20
2017,08,10,06,39,15.20
2017,08,10,06,40,15.30
2017,08,10,06,41,15.30
2017,08,10,06,42,15.30
2017,08,10,06,43,15.30
2017,08,10,06,44,15.30
2017,08,10,06,45,15.30
2017,08,10,06,46,15.30
2017,08,10,06,47,15.30
2017,08,10,06,48,15.30
2017,08,10,06,49,15.30
2017,08,10,06,50,15.30
2017,08,10,06,51,15.30
2017,08,10,06,52,15.30
2017,08,10,06,53,15.30
2017,08,10,06,54,15.30
2017,08,10,06,55,15.30
2017,08,10,06,56,15.40
2017,08,10,06,57,15.40
2017,08,10,06,58,15.40
2017,08,10,06,59,15.40
2017,08,10,07,00,15.40
2017,08,10,07,01,15.50
2017,08,10,07,02,15.50
2017,08,10,07,03,15.50
2017,08,10,07,04,15.60
2017,08,10,07,05,15.60
2017,08,10,07,06,15.60
2017,08,10,07,07,15.60
2017,08,10,07,08,15.70
2017,08,10,07,09,15.70
2017,08,10,07,10,15.70
2017,08,10,07,11,15.70
2017,08,10,07,12,15.80
2017,08,10,07,13,15.80
2017,08,10,07,14,15.80
2017,08,10,07,15,15.80
2017,08,10,07,16,15.80
2017,08,10,07,17,15.90
2017,08,10,07,18,15.90
2017,08,10,07,19,15.90
2017,08,10,07,20,15.90
2017,08,10,07,21,15.90
2017,08,10,07,22,16.00
2017,08,10,07,23,16.00
2017,08,10,07,24,16.00
2017,08,10,07,25,16.00
2017,08,10,07,26,16.10
2017,08,10,07,27,16.10
2017,08,10,07,28,16.10
2017,08,10,07,29,16.10
2017,08,10,07,30,16.10
2017,08,10,07,31,16.10
2017,08,10,07,32,16.10
2017,08,10,07,33,16.20
2017,08,10,07,34,16.20
2017,08,10,07,35,16.20
2017,08,10,07,36,16.20
2017,08,10,07,37,16.20
2017,08,10,07,38,16.20
2017,08,10,07,39,16.20
2017,08,10,07,40,16.30
2017,08,10,07,41,16.30
2017,08,10,07,42,16.30
2017,08,10,07,43,16.30
2017,08,10,07,44,16.30
2017,08,10,07,45,16.30
2017,08,10,07,46,16.40
2017,08,10,07,47,16.40
2017,08,10,07,48,16.40
2017,08,10,07,49,16.40
2017,08,10,07,50,16.50
2017,08,10,07,51,16.50
2017,08,10,07,52,16.50
2017,08,10,07,53,16.60
2017,08,10,07,54,16.60
2017,08,10,07,55,16.60
2017,08,10,07,56,16.60
2017,08,10,07,57,16.70
2017,08,10,07,58,16.70
2017,08,10,07,59,16.70
2017,08,10,08,00,16.70
2017,08,10,08,01,16.80
2017,08,10,08,02,16.80
2017,08,10,08,03,16.80
2017,08,10,08,04,16.80
2017,08,10,08,05,16.90
2017,08,10,08,06,16.90
2017,08,10,08,07,16.90
2017,08,10,08,08,16.90
2017,08,10,08,09,16.90
2017,08,10,08,10,17.00
2017,08,10,08,11,17.00
2017,08,10,08,12,17.10
2017,08,10,08,13,17.10
2017,08,10,08,14,17.20
2017,08,10,08,15,17.20
2017,08,10,08,16,17.30
2017,08,10,08,17,17.30
2017,08,10,08,18,17.30
2017,08,10,08,19,17.40
2017,08,10,08,20,17.40
2017,08,10,08,21,17.50
2017,08,10,08,22,17.50
2017,08,10,08,23,17.50
2017,08,10,08,24,17.60
2017,08,10,08,25,17.60
2017,08,10,08,26,17.70
2017,08,10,08,27,17.70
2017,08,10,08,28,17.70
2017,08,10,08,29,17.80
2017,08,10,08,30,17.80
2017,08,10,08,31,17.80
2017,08,10,08,32,17.80
2017,08,10,08,33,17.90
2017,08,10,08,34,17.90
2017,08,10,08,35,17.90
2017,08,10,08,36,17.90
2017,08,10,08,37,17.90
2017,08,10,08,38,17.90
2017,08,10,08,39,17.90
2017,08,10,08,40,17.90
2017,08,10,08,41,18.00
2017,08,10,08,42,18.00
2017,08,10,08,43,18.00
2017,08,10,08,44,18.00
2017,08,10,08,45,18.00
2017,08,10,08,46,18.10
2017,08,10,08,47,18.10
2017,08,10,08,48,18.10
2017,08,10,08,49,18.10
2017,08,10,08,50,18.20
2017,08,10,08,51,18.20
2017,08,10,08,52,18.20
2017,08,10,08,53,18.20
2017,08,10,08,54,18.20
2017,08,10,08,55,18.20
2017,08,10,08,56,18.20
2017,08,10,08,57,18.20
2017,08,10,08,58,18.20
2017,08,10,08,59,18.20
2017,08,10,09,00,18.30
2017,08,10,09,01,18.30
2017,08,10,09,02,18.30
2017,08,10,09,03,18.30
2017,08,10,09,04,18.30
2017,08,10,09,05,18.30
2017,08,10,09,06,18.30
2017,08,10,09,07,18.40
2017,08,10,09,08,18.40
2017,08,10,09,09,18.50
2017,08,10,09,10,18.50
2017,08,10,09,11,18.60
2017,08,10,09,12,18.60
2017,08,10,09,13,18.60
2017,08,10,09,14,18.70
2017,08,10,09,15,18.70
2017,08,10,09,16,18.60
2017,08,10,09,17,18.60
2017,08,10,09,18,18.60
2017,08,10,09,19,18.70
2017,08,10,09,20,18.70
2017,08,10,09,21,18.70
2017,08,10,09,22,18.80
2017,08,10,09,23,18.80
2017,08,10,09,24,18.80
2017,08,10,09,25,18.80
2017,08,10,09,26,18.80
2017,08,10,09,27,18.90
2017,08,10,09,28,19.00
2017,08,10,09,29,19.00
2017,08,10,09,30,19.10
2017,08,10,09,31,19.20
2017,08,10,09,32,19.20
2017,08,10,09,33,19.30
2017,08,10,09,34,19.40
2017,08,10,09,35,19.40
2017,08,10,09,36,19.50
2017,08,10,09,37,19.50
2017,08,10,09,38,19.60
2017,08,10,09,39,19.60
2017,08,10,09,40,19.60
2017,08,10,09,41,19.60
2017,08,10,09,42,19.70
2017,08,10,09,43,19.70
2017,08,10,09,44,19.70
2017,08,10,09,45,19.70
2017,08,10,09,46,19.70
2017,08,10,09,47,19.70
2017,08,10,09,48,19.70
2017,08,10,09,49,19.80
2017,08,10,09,50,19.80
2017,08,10,09,51,19.80
2017,08,10,09,52,19.90
2017,08,10,09,53,19.90
2017,08,10,09,54,20.00
2017,08,10,09,55,20.00
2017,08,10,09,56,20.00
2017,08,10,09,57,20.10
2017,08,10,09,58,20.00
2017,08,10,09,59,20.00
2017,08,10,10,00,20.10
2017,08,10,10,01,20.10
2017,08,10,10,02,20.10
2017,08,10,10,03,20.20
2017,08,10,10,04,20.20
2017,08,10,10,05,20.30
2017,08,10,10,06,20.30
2017,08,10,10,07,20.40
2017,08,10,10,08,20.50
2017,08,10,10,09,20.50
2017,08,10,10,10,20.60
2017,08,10,10,11,20.60
2017,08,10,10,12,20.60
2017,08,10,10,13,20.70
2017,08,10,10,14,20.70
2017,08,10,10,15,20.70
2017,08,10,10,16,20.70
2017,08,10,10,17,20.70
2017,08,10,10,18,20.70
2017,08,10,10,19,20.70
2017,08,10,10,20,20.70
2017,08,10,10,21,20.70
2017,08,10,10,22,20.70
2017,08,10,10,23,20.80
2017,08,10,10,24,20.70
2017,08,10,10,25,20.70
2017,08,10,10,26,20.70
2017,08,10,10,27,20.80
2017,08,10,10,28,20.80
2017,08,10,10,29,20.80
2017,08,10,10,30,20.90
2017,08,10,10,31,20.90
2017,08,10,10,32,21.00
2017,08,10,10,33,21.00
2017,08,10,10,34,21.10
2017,08,10,10,35,21.10
2017,08,10,10,36,21.10
2017,08,10,10,37,21.20
2017,08,10,10,38,21.20
2017,08,10,10,39,21.20
2017,08,10,10,40,21.30
2017,08,10,10,41,21.30
2017,08,10,10,42,21.30
2017,08,10,10,43,21.30
2017,08,10,10,44,21.30
2017,08,10,10,45,21.30
2017,08,10,10,46,21.30
2017,08,10,10,47,21.30
2017,08,10,10,48,21.40
2017,08,10,10,49,21.40
2017,08,10,10,50,21.40
2017,08,10,10,51,21.40
2017,08,10,10,52,21.50
2017,08,10,10,53,21.50
2017,08,10,10,54,21.50
2017,08,10,10,55,21.50
2017,08,10,10,56,21.50
2017,08,10,10,57,21.50
2017,08,10,10,58,21.60
2017,08,10,10,59,21.60
2017,08,10,11,00,21.60
2017,08,10,11,01,21.60
2017,08,10,11,02,21.60
2017,08,10,11,03,21.60
2017,08,10,11,04,21.60
2017,08,10,11,05,21.60
2017,08,10,11,06,21.60
2017,08,10,11,07,21.60
2017,08,10,11,08,21.60
2017,08,10,11,09,21.60
2017,08,10,11,10,21.60
2017,08,10,11,11,21.70
2017,08,10,11,12,21.70
2017,08,10,11,13,21.70
2017,08,10,11,14,21.70
2017,08,10,11,15,21.70
2017,08,10,11,16,21.70
2017,08,10,11,17,21.70
2017,08,10,11,18,21.70
2017,08,10,11,19,21.70
2017,08,10,11,20,21.80
2017,08,10,11,21,21.80
2017,08,10,11,22,21.80
2017,08,10,11,23,21.90
2017,08,10,11,24,21.90
2017,08,10,11,25,21.90
2017,08,10,11,26,21.90
2017,08,10,11,27,22.00
2017,08,10,11,28,22.00
2017,08,10,11,29,22.10
2017,08,10,11,30,22.20
2017,08,10,11,31,22.30
2017,08,10,11,32,22.40
2017,08,10,11,33,22.50
2017,08,10,11,34,22.50
2017,08,10,11,35,22.60
2017,08,10,11,36,22.70
2017,08,10,11,37,22.80
2017,08,10,11,38,22.90
2017,08,10,11,39,22.90
2017,08,10,11,40,23.00
2017,08,10,11,41,23.00
2017,08,10,11,42,23.00
2017,08,10,11,43,22.90
2017,08,10,11,44,22.90
2017,08,10,11,45,22.80
2017,08,10,11,46,22.80
2017,08,10,11,47,22.80
2017,08,10,11,48,22.80
2017,08,10,11,49,22.80
2017,08,10,11,50,22.90
2017,08,10,11,51,23.00
2017,08,10,11,52,23.10
2017,08,10,11,53,23.10
2017,08,10,11,54,23.20
2017,08,10,11,55,23.30
2017,08,10,11,56,23.20
2017,08,10,11,57,23.20
2017,08,10,11,58,23.20
2017,08,10,11,59,23.20
2017,08,10,12,00,23.20
2017,08,10,12,01,23.20
2017,08,10,12,02,23.30
2017,08,10,12,03,23.30
2017,08,10,12,04,23.30
2017,08,10,12,05,23.30
2017,08,10,12,06,23.40
2017,08,10,12,07,23.40
2017,08,10,12,08,23.40
2017,08,10,12,09,23.50
2017,08,10,12,10,23.50
2017,08,10,12,11,23.60
2017,08,10,12,12,23.60
2017,08,10,12,13,23.70
2017,08,10,12,14,23.70
2017,08,10,12,15,23.70
2017,08,10,12,16,23.70
2017,08,10,12,17,23.70
2017,08,10,12,18,23.80
2017,08,10,12,19,23.80
2017,08,10,12,20,23.90
2017,08,10,12,21,24.00
2017,08,10,12,22,24.00
2017,08,10,12,23,24.10
2017,08,10,12,24,24.10
2017,08,10,12,25,24.10
2017,08,10,12,26,24.10
2017,08,10,12,27,24.10
2017,08,10,12,28,24.10
2017,08,10,12,29,24.10
2017,08,10,12,30,24.20
2017,08,10,12,31,24.20
2017,08,10,12,32,24.10
2017,08,10,12,33,24.20
2017,08,10,12,34,24.20
2017,08,10,12,35,24.20
2017,08,10,12,36,24.20
2017,08,10,12,37,24.20
2017,08,10,12,38,24.20
2017,08,10,12,39,24.20
2017,08,10,12,40,24.20
2017,08,10,12,41,24.20
2017,08,10,12,42,24.20
2017,08,10,12,43,24.20
2017,08,10,12,44,24.20
2017,08,10,12,45,24.30
2017,08,10,12,46,24.30
2017,08,10,12,47,24.40
2017,08,10,12,48,24.50
2017,08,10,12,49,24.60
2017,08,10,12,50,24.70
2017,08,10,12,51,24.80
2017,08,10,12,52,24.90
2017,08,10,12,53,25.00
2017,08,10,12,54,25.00
2017,08,10,12,55,25.00
2017,08,10,12,56,24.90
2017,08,10,12,57,24.90
2017,08,10,12,58,24.80
2017,08,10,12,59,24.80
2017,08,10,13,00,24.80
2017,08,10,13,01,24.90
2017,08,10,13,02,25.00
2017,08,10,13,03,25.10
2017,08,10,13,04,25.20
2017,08,10,13,05,25.30
2017,08,10,13,06,25.50
2017,08,10,13,07,25.50
2017,08,10,13,08,25.60
2017,08,10,13,09,25.60
2017,08,10,13,10,25.60
2017,08,10,13,11,25.70
2017,08,10,13,12,25.70
2017,08,10,13,13,25.80
2017,08,10,13,14,25.90
2017,08,10,13,15,26.00
2017,08,10,13,16,26.00
2017,08,10,13,17,26.10
2017,08,10,13,18,26.10
2017,08,10,13,19,26.10
2017,08,10,13,20,26.20
2017,08,10,13,21,26.20
2017,08,10,13,22,26.30
2017,08,10,13,23,26.30
2017,08,10,13,24,26.40
2017,08,10,13,25,26.40
2017,08,10,13,26,26.40
2017,08,10,13,27,26.40
2017,08,10,13,28,26.50
2017,08,10,13,29,26.50
2017,08,10,13,30,26.40
2017,08,10,13,31,26.50
2017,08,10,13,32,26.50
2017,08,10,13,33,26.50
2017,08,10,13,34,26.50
2017,08,10,13,35,26.60
2017,08,10,13,36,26.60
2017,08,10,13,37,26.60
2017,08,10,13,38,26.60
2017,08,10,13,39,26.60
2017,08,10,13,40,26.40
2017,08,10,13,41,26.30
2017,08,10,13,42,26.30
2017,08,10,13,43,26.30
2017,08,10,13,44,26.30
2017,08,10,13,45,26.30
2017,08,10,13,46,26.30
2017,08,10,13,47,26.30
2017,08,10,13,48,26.30
2017,08,10,13,49,26.30
2017,08,10,13,50,26.30
2017,08,10,13,51,26.30
2017,08,10,13,52,26.30
2017,08,10,13,53,26.30
2017,08,10,13,54,26.20
2017,08,10,13,55,26.20
2017,08,10,13,56,26.20
2017,08,10,13,57,26.20
2017,08,10,13,58,26.20
2017,08,10,13,59,26.10
2017,08,10,14,00,26.10
2017,08,10,14,01,26.00
2017,08,10,14,02,25.90
2017,08,10,14,03,25.90
2017,08,10,14,04,25.80
2017,08,10,14,05,25.80
2017,08,10,14,06,25.70
2017,08,10,14,07,25.70
2017,08,10,14,08,25.60
2017,08,10,14,09,25.50
2017,08,10,14,10,25.50
2017,08,10,14,11,25.40
2017,08,10,14,12,25.40
2017,08,10,14,13,25.40
2017,08,10,14,14,25.40
2017,08,10,14,15,25.40
2017,08,10,14,16,25.40
2017,08,10,14,17,25.40
2017,08,10,14,18,25.50
2017,08,10,14,19,25.60
2017,08,10,14,20,25.60
2017,08,10,14,21,25.60
2017,08,10,14,22,25.60
2017,08,10,14,23,25.60
2017,08,10,14,24,25.60
2017,08,10,14,25,25.60
2017,08,10,14,26,25.50
2017,08,10,14,27,25.50
2017,08,10,14,28,25.50
2017,08,10,14,29,25.40
2017,08,10,14,30,25.40
2017,08,10,14,31,25.30
2017,08,10,14,32,25.30
2017,08,10,14,33,25.30
2017,08,10,14,34,25.30
2017,08,10,14,35,25.30
2017,08,10,14,36,25.20
2017,08,10,14,37,25.20
2017,08,10,14,38,25.30
2017,08,10,14,39,25.30
2017,08,10,14,40,25.30
2017,08,10,14,41,25.40
2017,08,10,14,42,25.40
2017,08,10,14,43,25.40
2017,08,10,14,44,25.40
2017,08,10,14,45,25.40
2017,08,10,14,46,25.40
2017,08,10,14,47,25.40
2017,08,10,14,48,25.40
2017,08,10,14,49,25.40
2017,08,10,14,50,25.40
2017,08,10,14,51,25.40
2017,08,10,14,52,25.40
2017,08,10,14,53,25.50
2017,08,10,14,54,25.60
2017,08,10,14,55,25.70
2017,08,10,14,56,25.70
2017,08,10,14,57,25.70
2017,08,10,14,58,25.70
2017,08,10,14,59,25.80
2017,08,10,15,00,25.80
2017,08,10,15,01,25.80
2017,08,10,15,02,25.80
2017,08,10,15,03,25.90
2017,08,10,15,04,25.90
2017,08,10,15,05,25.80
2017,08,10,15,06,25.80
2017,08,10,15,07,25.80
2017,08,10,15,08,25.80
2017,08,10,15,09,25.80
2017,08,10,15,10,25.80
2017,08,10,15,11,25.80
2017,08,10,15,12,25.80
2017,08,10,15,13,25.80
2017,08,10,15,14,25.80
2017,08,10,15,15,25.80
2017,08,10,15,16,25.80
2017,08,10,15,17,25.80
2017,08,10,15,18,25.80
2017,08,10,15,19,25.80
2017,08,10,15,20,25.80
2017,08,10,15,21,25.80
2017,08,10,15,22,25.90
2017,08,10,15,23,26.00
2017,08,10,15,24,26.00
2017,08,10,15,25,26.00
2017,08,10,15,26,26.00
2017,08,10,15,27,26.00
2017,08,10,15,28,26.00
2017,08,10,15,29,26.00
2017,08,10,15,30,26.00
2017,08,10,15,31,26.00
2017,08,10,15,32,25.90
2017,08,10,15,33,25.90
2017,08,10,15,34,25.90
2017,08,10,15,35,25.90
2017,08,10,15,36,25.90
2017,08,10,15,37,25.90
2017,08,10,15,38,25.90
2017,08,10,15,39,25.90
2017,08,10,15,40,25.90
2017,08,10,15,41,26.00
2017,08,10,15,42,26.00
2017,08,10,15,43,26.10
2017,08,10,15,44,26.10
2017,08,10,15,45,26.10
2017,08,10,15,46,26.10
2017,08,10,15,47,26.10
2017,08,10,15,48,26.10
2017,08,10,15,49,26.20
2017,08,10,15,50,26.20
2017,08,10,15,51,26.20
2017,08,10,15,52,26.20
2017,08,10,15,53,26.20
2017,08,10,15,54,26.30
2017,08,10,15,55,26.30
2017,08,10,15,56,26.30
2017,08,10,15,57,26.30
2017,08,10,15,58,26.30
2017,08,10,15,59,26.30
2017,08,10,16,00,26.30
2017,08,10,16,01,26.40
2017,08,10,16,02,26.40
2017,08,10,16,03,26.40
2017,08,10,16,04,26.50
2017,08,10,16,05,26.50
2017,08,10,16,06,26.50
2017,08,10,16,07,26.50
2017,08,10,16,08,26.50
2017,08,10,16,09,26.40
2017,08,10,16,10,26.40
2017,08,10,16,11,26.40
2017,08,10,16,12,26.40
2017,08,10,16,13,26.40
2017,08,10,16,14,26.40
2017,08,10,16,15,26.40
2017,08,10,16,16,26.50
2017,08,10,16,17,26.50
2017,08,10,16,18,26.50
2017,08,10,16,19,26.60
2017,08,10,16,20,26.60
2017,08,10,16,21,26.70
2017,08,10,16,22,26.70
2017,08,10,16,23,26.70
2017,08,10,16,24,26.70
2017,08,10,16,25,26.70
2017,08,10,16,26,26.70
2017,08,10,16,27,26.70
2017,08,10,16,28,26.70
2017,08,10,16,29,26.70
2017,08,10,16,30,26.70
2017,08,10,16,31,26.70
2017,08,10,16,32,26.60
2017,08,10,16,33,26.60
2017,08,10,16,34,26.60
2017,08,10,16,35,26.60
2017,08,10,16,36,26.60
2017,08,10,16,37,26.60
2017,08,10,16,38,26.60
2017,08,10,16,39,26.60
2017,08,10,16,40,26.60
2017,08,10,16,41,26.60
2017,08,10,16,42,26.60
2017,08,10,16,43,26.60
2017,08,10,16,44,26.70
2017,08,10,16,45,26.70
2017,08,10,16,46,26.80
2017,08,10,16,47,26.80
2017,08,10,16,48,26.80
2017,08,10,16,49,26.80
2017,08,10,16,50,26.80
2017,08,10,16,51,26.80
2017,08,10,16,52,26.80
2017,08,10,16,53,26.80
2017,08,10,16,54,26.90
2017,08,10,16,55,26.90
2017,08,10,16,56,26.90
2017,08,10,16,57,26.90
2017,08,10,16,58,26.90
2017,08,10,16,59,26.90
2017,08,10,17,00,26.90
2017,08,10,17,01,26.90
2017,08,10,17,02,26.90
2017,08,10,17,03,26.90
2017,08,10,17,04,26.90
2017,08,10,17,05,26.90
2017,08,10,17,06,26.90
2017,08,10,17,07,26.90
2017,08,10,17,08,26.90
2017,08,10,17,09,26.90
2017,08,10,17,10,27.00
2017,08,10,17,11,27.00
2017,08,10,17,12,27.00
2017,08,10,17,13,27.10
2017,08,10,17,14,27.10
2017,08,10,17,15,27.10
2017,08,10,17,16,27.10
2017,08,10,17,17,27.10
2017,08,10,17,18,27.10
2017,08,10,17,19,27.10